Weather History for KPHX - November, 2012

Change the Weather History Date:

Friday, November 9, 2012

  Actual Average Record
Temperature  
Mean Temperature 70 °F 67 °F  
Max Temperature 78 °F 79 °F 88 °F (1973)
Min Temperature 61 °F 55 °F 31 °F (1897)
Degree Days  
Heating Degree Days 0 2  
Month to date heating degree days 0 10  
Since 1 July heating degree days 0 16  
Cooling Degree Days 5 3  
Month to date cooling degree days 84 42  
Year to date cooling degree days 5012 4578  
Growing Degree Days 20 (Base 50)    
Moisture  
Dew Point 47 °F    
Average Humidity 45    
Maximum Humidity 60    
Minimum Humidity 29    
Precipitation  
Precipitation 0.05 in 0.02 in 0.55 in (1982)
Month to date precipitation 0.05 0.18  
Year to date precipitation 3.41 6.68  
Snow  
Snow 0.00 in - - ()
Month to date snowfall 0.0  
Year to date snowfall 0.0  
Since 1 July snowfall 0.0  
Snow Depth 0.00 in    
Sea Level Pressure  
Sea Level Pressure 29.74 in    
Wind  
Wind Speed 11 mph (WSW)    
Max Wind Speed 24 mph    
Max Gust Speed 26 mph    
Visibility 10 miles    
Events      
T = Trace of Precipitation, MM = Missing Value Source: NWS Daily Summary

Daily Weather History Graph

Daily Weather History Graph

Search for Another Location

Airport or City:

Trip Planner

Search our weather history database for the weather conditions in past years. The results will help you decide how hot, cold, wet, or windy it might be!

Date:

Astronomy

Nov. 09, 2012 Rise Set
Actual Time 6:54 AM MST 5:29 PM MST
Civil Twilight 6:28 AM MST 5:55 PM MST
Nautical Twilight 5:58 AM MST 6:24 PM MST
Astronomical Twilight 5:29 AM MST 6:54 PM MST
Moon 2:10 AM MST (11/9) 2:32 PM MST (11/9)
Length of Visible Light 11h 26m
Length of Day
10h 34m
Waning Crescent, 22% of the Moon is Illuminated
Nov 9
Waning Crescent
Nov 13
New
Nov 20
First Quarter
Nov 28
Full
Dec 6
Last Quarter

Hourly Weather History & Observations

Time (MST) Temp. Dew Point Humidity Pressure Visibility Wind Dir Wind Speed Gust Speed Precip Events Conditions
12:51 AM 68.0 °F 48.0 °F 49% 29.78 in 10.0 mi ESE 5.8 mph - N/A   Partly Cloudy
1:51 AM 66.9 °F 46.0 °F 47% 29.77 in 10.0 mi SE 10.4 mph - N/A   Mostly Cloudy
2:51 AM 66.9 °F 45.0 °F 45% 29.76 in 10.0 mi ENE 8.1 mph - N/A   Mostly Cloudy
3:51 AM 66.0 °F 45.0 °F 47% 29.76 in 10.0 mi SE 6.9 mph - N/A   Mostly Cloudy
4:51 AM 69.8 °F 48.2 °F 46% 29.80 in 10.0 mi South 8.1 mph - N/A   Scattered Clouds
5:51 AM 69.1 °F 50.0 °F 51% 29.76 in 10.0 mi South 9.2 mph - N/A   Mostly Cloudy
6:51 AM 68.0 °F 52.0 °F 56% 29.77 in 10.0 mi SSE 11.5 mph - N/A   Scattered Clouds
7:51 AM 69.1 °F 53.1 °F 57% 29.78 in 10.0 mi South 10.4 mph - N/A   Scattered Clouds
8:51 AM 72.0 °F 53.1 °F 51% 29.79 in 10.0 mi South 12.7 mph - N/A   Scattered Clouds
9:51 AM 75.0 °F 53.1 °F 46% 29.79 in 10.0 mi South 8.1 mph - N/A   Scattered Clouds
10:51 AM 72.0 °F 46.9 °F 41% 29.78 in 10.0 mi West 15.0 mph - N/A   Mostly Cloudy
10:59 AM 71.6 °F 46.4 °F 41% 29.82 in 10.0 mi West 13.8 mph - N/A   Mostly Cloudy
11:51 AM 73.0 °F 46.0 °F 38% 29.77 in 10.0 mi WNW 15.0 mph - N/A   Mostly Cloudy
12:51 PM 73.0 °F 46.9 °F 39% 29.73 in 10.0 mi NNW 6.9 mph - N/A   Scattered Clouds
1:51 PM 75.9 °F 46.0 °F 35% 29.70 in 10.0 mi WSW 9.2 mph 18.4 mph N/A   Scattered Clouds
2:51 PM 77.0 °F 43.0 °F 30% 29.68 in 10.0 mi West 13.8 mph 20.7 mph N/A   Mostly Cloudy
3:51 PM 75.0 °F 43.0 °F 32% 29.67 in 10.0 mi West 13.8 mph - N/A   Mostly Cloudy
4:51 PM 73.0 °F 44.1 °F 35% 29.66 in 10.0 mi WNW 15.0 mph - N/A   Mostly Cloudy
5:51 PM 72.0 °F 45.0 °F 38% 29.67 in 10.0 mi West 13.8 mph - N/A   Mostly Cloudy
6:51 PM 71.1 °F 45.0 °F 39% 29.69 in 10.0 mi West 12.7 mph 20.7 mph N/A   Mostly Cloudy
7:51 PM 66.9 °F 50.0 °F 54% 29.70 in 10.0 mi West 6.9 mph - 0.02 in   Mostly Cloudy
8:51 PM 66.0 °F 50.0 °F 56% 29.72 in 10.0 mi West 12.7 mph - 0.03 in   Mostly Cloudy
9:51 PM 63.0 °F 48.9 °F 60% 29.73 in 10.0 mi WSW 8.1 mph - 0.00 in   Mostly Cloudy
10:51 PM 62.1 °F 43.0 °F 50% 29.76 in 10.0 mi West 19.6 mph - N/A   Mostly Cloudy
11:51 PM 61.0 °F 42.1 °F 50% 29.76 in 10.0 mi West 11.5 mph - N/A   Overcast